TimeEST,TemperatureF,Dew PointF,Humidity,Sea Level PressureIn,VisibilityMPH,Wind Direction,Wind SpeedMPH,Gust SpeedMPH,PrecipitationIn,Events,Conditions,WindDirDegrees,DateUTC
12:53 AM,52.0,35.1,53,29.69,10.0,South,11.5,-,N/A,,Clear,190,2011-11-13 05:53:00
1:53 AM,52.0,35.1,53,29.66,10.0,South,13.8,-,N/A,,Scattered Clouds,190,2011-11-13 06:53:00
2:53 AM,53.6,35.6,51,29.63,10.0,South,13.8,21.9,N/A,,Mostly Cloudy,190,2011-11-13 07:53:00
3:53 AM,52.0,37.9,59,29.62,10.0,South,11.5,18.4,N/A,,Clear,190,2011-11-13 08:53:00
4:53 AM,53.1,39.9,61,29.60,10.0,South,15.0,21.9,N/A,,Overcast,190,2011-11-13 09:53:00
5:53 AM,52.0,39.9,63,29.59,10.0,South,13.8,20.7,N/A,,Overcast,180,2011-11-13 10:53:00
6:53 AM,52.0,39.9,63,29.57,10.0,South,15.0,-,N/A,,Overcast,180,2011-11-13 11:53:00
7:53 AM,53.1,39.9,61,29.56,10.0,South,13.8,21.9,N/A,,Overcast,170,2011-11-13 12:53:00
8:53 AM,54.0,42.1,64,29.56,10.0,South,13.8,23.0,N/A,,Overcast,190,2011-11-13 13:53:00
9:53 AM,55.9,43.0,62,29.55,10.0,SSW,20.7,29.9,N/A,,Overcast,200,2011-11-13 14:53:00
10:53 AM,57.9,45.0,62,29.51,10.0,SSW,19.6,29.9,N/A,,Mostly Cloudy,200,2011-11-13 15:53:00
11:53 AM,57.9,45.0,62,29.50,10.0,South,18.4,31.1,N/A,,Overcast,190,2011-11-13 16:53:00
12:53 PM,59.0,46.0,62,29.49,10.0,SSW,16.1,26.5,N/A,,Overcast,200,2011-11-13 17:53:00
1:53 PM,60.1,46.9,62,29.45,10.0,South,13.8,20.7,N/A,,Overcast,190,2011-11-13 18:53:00
2:53 PM,60.1,48.0,64,29.44,10.0,South,11.5,21.9,N/A,,Overcast,190,2011-11-13 19:53:00
3:53 PM,61.0,48.0,62,29.42,10.0,South,12.7,20.7,N/A,,Overcast,180,2011-11-13 20:53:00
4:53 PM,61.0,48.9,64,29.39,10.0,South,12.7,23.0,N/A,,Overcast,180,2011-11-13 21:53:00
5:53 PM,61.0,50.0,67,29.38,10.0,South,16.1,29.9,N/A,,Partly Cloudy,190,2011-11-13 22:53:00
6:53 PM,63.0,51.1,65,29.35,10.0,South,17.3,28.8,0.00,Rain,Light Rain,190,2011-11-13 23:53:00
7:53 PM,60.1,53.1,78,29.39,10.0,SW,16.1,27.6,0.05,,Overcast,230,2011-11-14 00:53:00
8:53 PM,59.0,52.0,78,29.40,10.0,SW,13.8,21.9,N/A,,Mostly Cloudy,220,2011-11-14 01:53:00
9:53 PM,57.0,44.1,62,29.44,10.0,SW,13.8,-,N/A,,Clear,230,2011-11-14 02:53:00
10:53 PM,55.0,41.0,59,29.47,10.0,WSW,13.8,-,N/A,,Clear,240,2011-11-14 03:53:00
11:53 PM,52.0,41.0,66,29.51,10.0,WSW,10.4,-,N/A,,Clear,250,2011-11-14 04:53:00